This is the latest recevied weather packets stored in our database for station/object AD7ZD. If no packets are shown the sender has not sent any weather packets the latest 10 day(s).
| Time | Temp. | Humidity | Pressure | Rain* | Wind** | Luminosity | Snow |
|---|---|---|---|---|---|---|---|
| 1777681635 | 23.33° C | 11% | 1012.7 hPa | 0 mm | - | 327 W/m² | - |
| 1777681333 | 22.78° C | 11% | 1012.8 hPa | 0 mm | - | 290 W/m² | - |
| 1777681030 | 22.78° C | 11% | 1012.7 hPa | 0 mm | - | 323 W/m² | - |
| 1777680728 | 23.89° C | 10% | 1012.9 hPa | 0 mm | - | 352 W/m² | - |
| 1777680425 | 23.33° C | 11% | 1012.8 hPa | 0 mm | - | 390 W/m² | - |
| 1777680123 | 23.89° C | 10% | 1012.7 hPa | 0 mm | - | 372 W/m² | - |
| 1777679818 | 23.33° C | 10% | 1012.9 hPa | 0 mm | - | 394 W/m² | - |
| 1777679515 | 23.89° C | 10% | 1013.1 hPa | 0 mm | - | 407 W/m² | - |
| 1777679210 | 22.78° C | 10% | 1013 hPa | 0 mm | - | 469 W/m² | - |
| 1777678908 | 22.22° C | 11% | 1013.3 hPa | 0 mm | - | 466 W/m² | - |
| 1777678606 | 22.22° C | 13% | 1013.3 hPa | 0 mm | - | 499 W/m² | - |
| 1777678302 | 22.78° C | 13% | 1013.1 hPa | 0 mm | - | 469 W/m² | - |
| 1777677998 | 22.78° C | 13% | 1013.4 hPa | 0 mm | - | 506 W/m² | - |
| 1777677696 | 22.22° C | 13% | 1013.4 hPa | 0 mm | - | 544 W/m² | - |
| 1777677394 | 22.22° C | 13% | 1013.3 hPa | 0 mm | - | 502 W/m² | - |
| 1777677092 | 22.78° C | 13% | 1013.5 hPa | 0 mm | - | 439 W/m² | - |
| 1777676790 | 22.22° C | 13% | 1013.6 hPa | 0 mm | - | 503 W/m² | - |
| 1777676488 | 22.78° C | 13% | 1013.5 hPa | 0 mm | - | 584 W/m² | - |
| 1777676185 | 22.22° C | 13% | 1013.9 hPa | 0 mm | - | 543 W/m² | - |
| 1777675881 | 22.22° C | 14% | 1013.7 hPa | 0 mm | - | 539 W/m² | - |
| 1777675578 | 22.78° C | 13% | 1013.8 hPa | 0 mm | - | 544 W/m² | - |
| 1777675275 | 22.78° C | 14% | 1014.1 hPa | 0 mm | - | 491 W/m² | - |
| 1777674972 | 22.22° C | 14% | 1014.1 hPa | 0 mm | - | 465 W/m² | - |
| 1777674669 | 22.78° C | 13% | 1014.1 hPa | 0 mm | - | 491 W/m² | - |
| 1777674383 | 22.22° C | 14% | 1014.2 hPa | 0 mm | - | 568 W/m² | - |
* Rain latest hour (hover to see other rain measurements)
** Current wind speed in m/s (hover to see current wind gust speed)